This is the latest recevied weather packets stored in our database for station/object KQ7A. If no packets are shown the sender has not sent any weather packets the latest 10 day(s).
| Time | Temp. | Humidity | Pressure | Rain* | Wind** | Luminosity | Snow |
|---|---|---|---|---|---|---|---|
| 1788372796 | 16.67° C | 41% | 1018.4 hPa | 0 mm | - | 266 W/m² | - |
| 1788372496 | 16.11° C | 43% | 1018.4 hPa | 0 mm | - | 256 W/m² | - |
| 1788372192 | 16.11° C | 43% | 1018.4 hPa | 0 mm | - | 247 W/m² | - |
| 1788371887 | 15.56° C | 43% | 1018.5 hPa | 0 mm | - | 217 W/m² | - |
| 1788371582 | 15.56° C | 43% | 1018.5 hPa | 0 mm | - | 240 W/m² | - |
| 1788371277 | 15.56° C | 44% | 1018.8 hPa | 0 mm | - | 228 W/m² | - |
| 1788370974 | 15.56° C | 44% | 1018.6 hPa | 0 mm | - | 209 W/m² | - |
| 1788370669 | 15.56° C | 43% | 1018.5 hPa | 0 mm | - | 197 W/m² | - |
| 1788370363 | 15° C | 48% | 1018.6 hPa | 0 mm | - | 226 W/m² | - |
| 1788370058 | 15° C | 47% | 1018.2 hPa | 0 mm | - | 184 W/m² | - |
| 1788369758 | 14.44° C | 48% | 1018.5 hPa | 0 mm | - | 216 W/m² | - |
| 1788369453 | 14.44° C | 46% | 1018.6 hPa | 0 mm | - | 138 W/m² | - |
| 1788369148 | 14.44° C | 50% | 1018.5 hPa | 0 mm | - | 134 W/m² | - |
| 1788368844 | 14.44° C | 47% | 1018.8 hPa | 0 mm | - | 110 W/m² | - |
| 1788368539 | 15° C | 46% | 1018.5 hPa | 0 mm | - | 133 W/m² | - |
| 1788368234 | 14.44° C | 49% | 1018.5 hPa | 0 mm | - | 132 W/m² | - |
| 1788367929 | 14.44° C | 48% | 1018.6 hPa | 0 mm | - | 146 W/m² | - |
| 1788367629 | 14.44° C | 46% | 1018.5 hPa | 0 mm | - | 135 W/m² | - |
| 1788367323 | 14.44° C | 47% | 1018.5 hPa | 0 mm | - | 141 W/m² | - |
| 1788367018 | 13.89° C | 47% | 1018.4 hPa | 0 mm | - | 144 W/m² | - |
| 1788366718 | 13.89° C | 47% | 1018.4 hPa | 0 mm | - | 129 W/m² | - |
| 1788366416 | 14.44° C | 48% | 1018.3 hPa | 0 mm | - | 129 W/m² | - |
| 1788366110 | 14.44° C | 46% | 1018.2 hPa | 0 mm | - | 120 W/m² | - |
| 1788365806 | 14.44° C | 46% | 1018.5 hPa | 0 mm | - | 123 W/m² | - |
| 1788365502 | 14.44° C | 45% | 1018.5 hPa | 0 mm | - | 149 W/m² | - |
* Rain latest hour (hover to see other rain measurements)
** Current wind speed in m/s (hover to see current wind gust speed)